SAS24C ENGM-ENZV

Flight info

Callsign SAS24C
Flight time 0h 40m
Altitude 30000
Route ATLAP DCT IPMOD DCT ROPNO
Aircraft A320/M-SDE3FGHIRWXY/ALB1

Departure

Time 2026-05-05 07:51
Airport Oslo-Gardermoen International Airport (ENGM)

Arrival

Time 2026-05-05 08:32
Airport Stavanger Airport, Sola (ENZV)
Time Latitude Longitude Altitude Speed Heading
2026-05-05 07:29 60.19598 11.09200 682 ft 0 kts 196°
2026-05-05 07:41 60.19610 11.09207 676 ft 3 kts 196°
2026-05-05 07:41 60.19626 11.09217 678 ft 3 kts 196°
2026-05-05 07:42 60.19643 11.09227 679 ft 2 kts 196°
2026-05-05 07:42 60.19659 11.09236 682 ft 2 kts 196°
2026-05-05 07:42 60.19676 11.09246 680 ft 3 kts 200°
2026-05-05 07:42 60.19691 11.09264 682 ft 3 kts 236°
2026-05-05 07:43 60.19698 11.09296 680 ft 3 kts 271°
2026-05-05 07:43 60.19698 11.09304 679 ft 0 kts 271°
2026-05-05 07:45 60.19699 11.09290 680 ft 4 kts 275°
2026-05-05 07:45 60.19705 11.09235 680 ft 6 kts 284°
2026-05-05 07:45 60.19722 11.09124 680 ft 11 kts 287°
2026-05-05 07:46 60.19747 11.08953 678 ft 15 kts 285°
2026-05-05 07:46 60.19764 11.08826 677 ft 14 kts 285°
2026-05-05 07:46 60.19768 11.08692 678 ft 8 kts 242°
2026-05-05 07:46 60.19703 11.08633 678 ft 14 kts 195°
2026-05-05 07:47 60.19595 11.08571 678 ft 18 kts 196°
2026-05-05 07:47 60.19474 11.08502 680 ft 19 kts 195°
2026-05-05 07:47 60.19341 11.08424 680 ft 21 kts 196°
2026-05-05 07:47 60.19193 11.08338 679 ft 24 kts 196°
2026-05-05 07:48 60.19027 11.08243 678 ft 24 kts 197°
2026-05-05 07:48 60.18862 11.08148 669 ft 27 kts 196°
2026-05-05 07:48 60.18728 11.08067 668 ft 20 kts 197°
2026-05-05 07:48 60.18616 11.08001 667 ft 17 kts 195°
2026-05-05 07:49 60.18541 11.07948 664 ft 9 kts 219°
2026-05-05 07:49 60.18546 11.07805 664 ft 13 kts 288°
2026-05-05 07:49 60.18573 11.07632 663 ft 10 kts 287°
2026-05-05 07:49 60.18617 11.07495 664 ft 14 kts 323°
2026-05-05 07:50 60.18683 11.07481 664 ft 10 kts 13°
2026-05-05 07:50 60.18786 11.07539 666 ft 33 kts 17°
2026-05-05 07:50 60.19228 11.07794 671 ft 96 kts 16°
2026-05-05 07:50 60.20040 11.08261 672 ft 144 kts 16°
2026-05-05 07:51 60.21080 11.08863 1002 ft 155 kts 14°
2026-05-05 07:51 60.22111 11.09474 1632 ft 155 kts 13°
2026-05-05 07:51 60.23184 11.10080 2124 ft 170 kts 12°
2026-05-05 07:51 60.24396 11.10760 2402 ft 191 kts 13°
2026-05-05 07:52 60.25761 11.11389 2675 ft 212 kts
2026-05-05 07:52 60.27287 11.11054 3138 ft 231 kts 349°
2026-05-05 07:52 60.28936 11.10481 3741 ft 246 kts 342°
2026-05-05 07:52 60.30392 11.08704 4549 ft 251 kts 309°
2026-05-05 07:53 60.31063 11.05485 5390 ft 256 kts 274°
2026-05-05 07:53 60.30745 11.01938 6305 ft 261 kts 253°
2026-05-05 07:53 60.30416 10.98341 7178 ft 262 kts 272°
2026-05-05 07:53 60.30729 10.94726 8089 ft 263 kts 284°
2026-05-05 07:54 60.31162 10.91127 8993 ft 265 kts 284°
2026-05-05 07:54 60.31603 10.87499 9854 ft 268 kts 283°
2026-05-05 07:54 60.31776 10.83751 10600 ft 272 kts 265°
2026-05-05 07:54 60.31322 10.79969 11084 ft 288 kts 254°
2026-05-05 07:55 60.30692 10.75974 11266 ft 311 kts 253°
2026-05-05 07:55 60.30002 10.71743 11438 ft 331 kts 253°
2026-05-05 07:55 60.29261 10.67276 11977 ft 339 kts 253°
2026-05-05 07:55 60.28499 10.62695 12719 ft 342 kts 253°
2026-05-05 07:56 60.27740 10.58140 13476 ft 344 kts 253°
2026-05-05 07:56 60.26989 10.53623 14143 ft 345 kts 253°
2026-05-05 07:56 60.26230 10.49040 14887 ft 344 kts 254°
2026-05-05 07:56 60.25474 10.44475 15666 ft 342 kts 254°
2026-05-05 07:57 60.24725 10.39961 16474 ft 339 kts 254°
2026-05-05 07:57 60.23978 10.35475 17287 ft 337 kts 254°
2026-05-05 07:57 60.23233 10.31017 18103 ft 335 kts 254°
2026-05-05 07:57 60.22491 10.26587 18808 ft 333 kts 254°
2026-05-05 07:58 60.21753 10.22188 19509 ft 331 kts 254°
2026-05-05 07:58 60.21018 10.17813 20170 ft 330 kts 254°
2026-05-05 07:58 60.20285 10.13449 20809 ft 329 kts 254°
2026-05-05 07:58 60.19550 10.09086 21434 ft 328 kts 254°
2026-05-05 07:59 60.18824 10.04799 21988 ft 327 kts 253°
2026-05-05 07:59 60.18089 10.00473 22534 ft 327 kts 253°
2026-05-05 07:59 60.17354 9.96152 23061 ft 327 kts 253°
2026-05-05 07:59 60.16620 9.91829 23540 ft 327 kts 253°
2026-05-05 08:00 60.15884 9.87506 23946 ft 328 kts 253°
2026-05-05 08:00 60.15140 9.83166 24290 ft 330 kts 253°
2026-05-05 08:00 60.14292 9.78858 24622 ft 335 kts 248°
2026-05-05 08:00 60.13216 9.74744 24951 ft 338 kts 247°
2026-05-05 08:01 60.12115 9.70561 25274 ft 340 kts 247°
2026-05-05 08:01 60.11005 9.66347 25597 ft 343 kts 247°
2026-05-05 08:01 60.09889 9.62110 25920 ft 345 kts 247°
2026-05-05 08:01 60.08767 9.57838 26221 ft 348 kts 247°
2026-05-05 08:02 60.07637 9.53536 26522 ft 351 kts 247°
2026-05-05 08:02 60.06492 9.49201 26840 ft 353 kts 246°
2026-05-05 08:02 60.05336 9.44845 27171 ft 354 kts 246°
2026-05-05 08:02 60.04175 9.40488 27570 ft 354 kts 246°
2026-05-05 08:03 60.03018 9.36159 27966 ft 354 kts 246°
2026-05-05 08:03 60.01856 9.31814 28381 ft 353 kts 246°
2026-05-05 08:03 60.00717 9.27557 28856 ft 353 kts 246°
2026-05-05 08:03 59.99558 9.23227 29270 ft 352 kts 246°
2026-05-05 08:04 59.98401 9.18906 29669 ft 353 kts 247°
2026-05-05 08:04 59.97238 9.14580 29874 ft 355 kts 246°
2026-05-05 08:04 59.94858 9.05746 29898 ft 365 kts 246°
2026-05-05 08:05 59.92448 8.96820 29910 ft 366 kts 246°
2026-05-05 08:05 59.90016 8.87886 29912 ft 367 kts 246°
2026-05-05 08:06 59.87572 8.78954 29923 ft 368 kts 246°
2026-05-05 08:06 59.85120 8.69998 29924 ft 369 kts 246°
2026-05-05 08:07 59.82664 8.61053 29916 ft 369 kts 246°
2026-05-05 08:07 59.80196 8.52105 29918 ft 370 kts 246°
2026-05-05 08:08 59.77709 8.43144 29915 ft 371 kts 246°
2026-05-05 08:08 59.75210 8.34174 29915 ft 372 kts 246°
2026-05-05 08:09 59.72706 8.25191 29920 ft 373 kts 246°
2026-05-05 08:09 59.70231 8.16165 29916 ft 373 kts 246°
2026-05-05 08:10 59.67759 8.07120 29925 ft 374 kts 246°
2026-05-05 08:10 59.65266 7.98076 29933 ft 375 kts 246°
2026-05-05 08:11 59.62749 7.89026 29944 ft 376 kts 245°
2026-05-05 08:11 59.60221 7.79960 29944 ft 377 kts 245°
2026-05-05 08:12 59.57691 7.70883 29947 ft 379 kts 245°
2026-05-05 08:12 59.55134 7.61788 29955 ft 380 kts 245°
2026-05-05 08:13 59.52556 7.52688 29963 ft 381 kts 245°
2026-05-05 08:13 59.49971 7.43565 29914 ft 383 kts 245°
2026-05-05 08:14 59.48674 7.38976 29614 ft 383 kts 245°
2026-05-05 08:14 59.47378 7.34400 29328 ft 384 kts 245°
2026-05-05 08:14 59.46072 7.29817 29045 ft 384 kts 245°
2026-05-05 08:14 59.44759 7.25232 28764 ft 385 kts 245°
2026-05-05 08:15 59.43447 7.20657 28198 ft 384 kts 245°
2026-05-05 08:15 59.42148 7.16138 27184 ft 385 kts 245°
2026-05-05 08:15 59.40829 7.11550 26156 ft 386 kts 245°
2026-05-05 08:15 59.39505 7.06966 25386 ft 383 kts 245°
2026-05-05 08:16 59.38202 7.02486 24833 ft 374 kts 245°
2026-05-05 08:16 59.36924 6.98091 24208 ft 368 kts 245°
2026-05-05 08:16 59.35666 6.93760 23588 ft 363 kts 245°
2026-05-05 08:16 59.34427 6.89494 22907 ft 357 kts 245°
2026-05-05 08:17 59.33185 6.85311 22195 ft 354 kts 243°
2026-05-05 08:17 59.31687 6.81466 21487 ft 355 kts 237°
2026-05-05 08:17 59.30098 6.77788 20788 ft 352 kts 237°
2026-05-05 08:17 59.28516 6.74131 19901 ft 355 kts 237°
2026-05-05 08:18 59.26900 6.70386 18645 ft 365 kts 237°
2026-05-05 08:18 59.25264 6.66607 17938 ft 359 kts 237°
2026-05-05 08:18 59.23664 6.62939 17402 ft 350 kts 237°
2026-05-05 08:18 59.22095 6.59346 16853 ft 344 kts 237°
2026-05-05 08:19 59.20559 6.55821 16369 ft 338 kts 237°
2026-05-05 08:19 59.19044 6.52349 15870 ft 333 kts 236°
2026-05-05 08:19 59.17550 6.48936 15377 ft 328 kts 236°
2026-05-05 08:19 59.16077 6.45577 14898 ft 324 kts 236°
2026-05-05 08:20 59.14599 6.42269 14402 ft 326 kts 233°
2026-05-05 08:20 59.12865 6.39358 13894 ft 334 kts 223°
2026-05-05 08:20 59.10804 6.37044 13362 ft 359 kts 212°
2026-05-05 08:20 59.08522 6.34994 12841 ft 363 kts 212°
2026-05-05 08:21 59.06222 6.32944 12318 ft 363 kts 211°
2026-05-05 08:21 59.03931 6.30907 11796 ft 361 kts 211°
2026-05-05 08:21 59.01654 6.28877 11273 ft 360 kts 211°
2026-05-05 08:21 58.99398 6.26868 10905 ft 350 kts 210°
2026-05-05 08:22 58.97233 6.24957 10776 ft 333 kts 210°
2026-05-05 08:22 58.95166 6.23135 10639 ft 321 kts 211°
2026-05-05 08:22 58.93173 6.21367 10504 ft 309 kts 211°
2026-05-05 08:22 58.91256 6.19662 10374 ft 298 kts 211°
2026-05-05 08:23 58.89404 6.18017 10243 ft 288 kts 211°
2026-05-05 08:23 58.87596 6.16407 9989 ft 284 kts 211°
2026-05-05 08:23 58.85824 6.14832 9823 ft 278 kts 211°
2026-05-05 08:23 58.84066 6.13275 9695 ft 278 kts 211°
2026-05-05 08:24 58.82312 6.11723 9535 ft 277 kts 211°
2026-05-05 08:24 58.80540 6.10150 9114 ft 280 kts 211°
2026-05-05 08:24 58.78813 6.08627 8981 ft 272 kts 211°
2026-05-05 08:24 58.77048 6.07237 8591 ft 272 kts 211°
2026-05-05 08:25 58.75643 6.05040 8099 ft 262 kts 240°
2026-05-05 08:25 58.74915 6.01911 7546 ft 254 kts 258°
2026-05-05 08:25 58.74429 5.98623 6826 ft 257 kts 257°
2026-05-05 08:25 58.73910 5.95319 6166 ft 258 kts 256°
2026-05-05 08:26 58.73377 5.92021 5501 ft 258 kts 255°
2026-05-05 08:26 58.72834 5.88730 4947 ft 258 kts 255°
2026-05-05 08:26 58.72283 5.85421 4502 ft 261 kts 255°
2026-05-05 08:26 58.71735 5.82122 4183 ft 259 kts 255°
2026-05-05 08:27 58.71274 5.78768 3862 ft 257 kts 264°
2026-05-05 08:27 58.71259 5.75393 3399 ft 251 kts 280°
2026-05-05 08:27 58.71716 5.72230 3073 ft 237 kts 291°
2026-05-05 08:27 58.72255 5.69371 2973 ft 218 kts 293°
2026-05-05 08:28 58.73012 5.66961 2825 ft 206 kts 312°
2026-05-05 08:28 58.74089 5.65241 2640 ft 196 kts 330°
2026-05-05 08:28 58.75323 5.64313 2456 ft 184 kts 347°
2026-05-05 08:28 58.76555 5.64116 2204 ft 173 kts 357°
2026-05-05 08:29 58.77697 5.64084 1990 ft 153 kts 357°
2026-05-05 08:29 58.78711 5.64054 1760 ft 140 kts 357°
2026-05-05 08:29 58.79670 5.64025 1557 ft 136 kts 357°
2026-05-05 08:30 58.81539 5.63968 1188 ft 134 kts 357°
2026-05-05 08:30 58.82472 5.63941 1010 ft 134 kts 358°
2026-05-05 08:30 58.83402 5.63914 814 ft 134 kts 358°
2026-05-05 08:30 58.84335 5.63885 636 ft 134 kts 358°
2026-05-05 08:31 58.85273 5.63853 437 ft 135 kts 358°
2026-05-05 08:31 58.86219 5.63823 267 ft 136 kts 358°
2026-05-05 08:31 58.87169 5.63797 90 ft 136 kts 359°
2026-05-05 08:31 58.88077 5.63767 31 ft 117 kts 360°
2026-05-05 08:32 58.88611 5.63755 26 ft 34 kts 359°
2026-05-05 08:32 58.88704 5.63712 25 ft 11 kts 298°
2026-05-05 08:32 58.88707 5.63565 24 ft 7 kts 269°
2026-05-05 08:32 58.88702 5.63451 25 ft 10 kts 244°
2026-05-05 08:33 58.88661 5.63417 25 ft 11 kts 180°
2026-05-05 08:33 58.88572 5.63423 26 ft 15 kts 181°
2026-05-05 08:33 58.88473 5.63410 26 ft 10 kts 203°
2026-05-05 08:33 58.88439 5.63276 27 ft 13 kts 254°
2026-05-05 08:34 58.88412 5.63122 27 ft 10 kts 237°
2026-05-05 08:34 58.88372 5.63044 27 ft 9 kts 224°
2026-05-05 08:34 58.88356 5.63015 28 ft 0 kts 224°